Location: Unspecified
(51.0950°N, 12.9690°E)
Time: 16:59:58
(UTC+00:00)

Cosmos 2322 Rocket - Pass Details

Date: 28 October 2021
Orbit: 832 x 851 km, 71.0° (Epoch: 03 December)

Event Time Altitude Azimuth Distance (km) Brightness Sun altitude
Rises 18:49:53 0° 254° (WSW) 3,375 6.2 -28.7°
Reaches altitude 10° 18:52:47 10° 268° (W) 2,446 5.5 -29.2°
Maximum altitude 18:57:16 24° 321° (NW) 1,676 4.2 -29.9°
Drops below altitude 10° 19:01:47 10° 15° (NNE) 2,463 4.6 -30.5°
Enters shadow 19:01:50 10° 15° (NNE) 2,477 4.6 -30.6°
